GEFSMA_con_cape1000_270.txt.gz
Probability
3 0 0 0 0 0 0 0 0 0 0 0 0 0 3 3 0 0 0 35 58 52 48 45 52 52 39 39 45 42 42 35 35 39 32 29 32 35 29 26 23 26 26
6 3 3 3 0 0 0 0 0 0 0 0 0 0 6 6 0 0 0 10 55 55 45 42 39 42 45 39 45 42 39 42 39 45 45 32 26 26 23 13 19 19 10
13 6 6 6 3 0 0 0 3 3 3 3 0 0 3 3 3 0 0 0 10 52 55 52 45 48 52 48 42 42 35 39 42 39 39 35 29 19 19 16 16 23 16
10 10 10 10 3 3 3 6 6 6 3 3 3 3 0 0 0 0 0 0 0 3 29 48 48 55 52 58 55 48 42 39 35 39 32 32 29 19 16 16 16 16 16
10 6 6 6 6 6 6 6 10 6 6 6 3 3 3 0 3 3 3 6 0 0 3 16 48 45 52 52 55 48 42 45 39 32 35 26 19 19 16 13 13 16 13
16 3 3 3 6 10 6 10 6 6 10 6 3 3 3 0 0 0 0 3 3 3 0 0 10 19 39 48 48 45 48 42 42 39 32 23 19 16 16 13 13 13 13
10 10 10 6 10 13 10 13 6 6 6 6 6 3 3 3 3 0 0 0 0 0 3 3 3 0 3 32 35 42 42 39 35 32 29 29 19 16 13 10 13 13 10
10 13 10 13 13 10 13 16 13 10 6 6 0 0 3 0 3 6 3 3 3 0 3 0 0 3 3 3 6 23 35 29 29 26 29 26 26 19 13 6 3 3 6
16 19 10 13 13 16 16 16 13 16 13 6 3 0 3 0 0 3 3 6 3 0 0 0 0 3 0 0 0 6 23 26 23 19 16 19 23 23 13 3 3 3 6
13 10 10 13 10 13 16 16 13 13 13 13 10 6 0 0 6 3 0 3 3 6 3 10 0 0 0 0 0 0 13 23 23 26 23 19 23 13 10 6 6 10 10
10 16 19 10 13 16 16 19 16 16 19 16 19 13 13 13 6 6 0 0 3 3 0 0 3 0 0 0 0 3 3 3 3 23 26 19 13 6 6 3 3 3 6
16 16 23 23 16 16 19 19 19 19 19 19 19 19 19 16 6 3 3 0 0 0 0 0 0 0 0 0 0 6 3 3 3 0 6 13 10 13 13 6 3 3 3
26 26 26 23 23 23 23 23 23 19 19 19 19 19 19 19 16 3 3 3 3 0 0 0 0 0 3 0 0 6 6 3 3 0 0 0 3 10 16 13 6 10 6
29 26 23 26 26 26 29 29 29 26 19 16 19 19 23 23 23 13 10 6 3 3 3 3 0 0 3 3 3 0 3 3 0 0 0 0 0 0 0 3 3 3 6
26 26 23 32 26 23 32 26 23 26 26 26 26 23 23 23 16 19 10 10 6 10 10 3 3 6 3 3 3 0 0 0 0 0 0 0 0 0 0 0 0 0 0
26 26 29 32 29 26 32 23 23 26 23 23 23 23 19 16 16 16 10 10 6 13 13 3 6 6 3 6 6 3 3 6 3 3 0 0 0 0 0 0 0 0 0
32 29 32 35 32 32 29 26 26 26 26 26 26 26 19 19 13 16 13 13 13 13 13 13 6 6 10 6 6 6 6 6 3 3 3 0 0 0 0 0 0 0 0
39 29 26 32 35 35 35 35 32 29 26 26 26 26 26 26 19 16 13 13 16 13 13 13 13 10 6 6 3 6 6 6 0 0 0 0 0 0 0 0 0 0 0
42 39 29 35 39 35 39 42 35 29 26 23 23 23 26 26 23 19 16 13 13 13 13 13 13 10 6 6 3 3 0 0 0 0 0 0 0 0 0 0 0 0 0
35 29 29 35 35 35 39 39 32 29 26 23 23 26 23 26 23 26 23 23 16 13 13 13 13 10 3 3 0 0 0 0 0 0 0 0 0 0 0 0 0 0 0
32 29 29 32 32 39 39 39 35 29 26 26 26 23 19 23 23 23 19 16 16 16 10 6 6 6 3 3 3 0 0 0 0 0 0 0 0 0 0 0 0 0 0
32 32 35 35 35 39 42 35 32 26 26 19 19 16 19 19 23 16 16 13 16 16 13 13 13 6 6 3 3 3 0 0 0 0 0 0 0 0 0 0 0 0 0
32 35 35 35 32 32 32 26 19 19 23 19 19 16 23 19 16 16 13 13 13 10 10 13 13 13 10 3 3 3 3 3 0 0 0 0 0 0 0 0 0 0 0
23 26 26 32 32 35 26 10 6 13 13 13 16 16 19 19 16 16 16 16 16 13 10 6 10 10 10 13 6 6 3 3 0 0 0 0 0 0 0 0 0 0 0
26 26 23 29 29 26 23 16 6 16 19 13 13 13 13 13 13 16 16 16 16 16 13 10 10 6 10 3 3 6 6 6 6 3 0 0 0 0 0 0 0 0 0
29 29 32 29 29 29 19 13 6 19 19 16 13 13 13 10 13 6 10 10 16 16 16 16 13 10 3 0 0 0 10 6 6 3 0 0 0 0 0 0 0 0 0

GEFSMA_con_cape1000_276.txt.gz
Probability
0 0 0 0 0 0 0 0 0 0 0 3 6 3 3 13 6 6 6 32 52 55 55 52 45 42 35 35 39 32 35 42 39 39 35 39 35 35 19 23 16 13 23
0 3 3 0 0 0 0 0 0 0 0 0 0 0 6 3 6 3 6 6 32 52 55 48 45 39 45 45 39 39 42 42 48 45 42 45 35 32 19 13 13 16 19
0 3 0 3 3 3 3 0 3 3 3 6 3 3 6 3 3 6 6 13 13 35 45 52 52 48 48 55 48 45 45 45 45 42 45 42 39 42 29 19 16 16 19
0 0 3 3 3 3 3 3 3 3 3 3 6 6 0 0 0 3 6 6 3 6 19 39 45 52 55 52 48 48 45 45 45 42 39 35 32 32 26 16 13 16 13
6 6 3 3 3 3 3 6 6 3 6 6 3 3 3 3 0 0 3 6 6 3 10 10 26 42 35 45 45 45 42 45 45 39 35 32 32 29 26 19 13 13 6
6 6 3 3 3 3 6 6 6 3 3 3 3 6 6 3 3 0 0 3 3 6 10 10 16 16 23 32 42 45 42 42 39 35 35 35 35 29 26 23 16 13 10
6 6 6 6 6 6 3 10 6 6 10 3 0 3 3 0 3 3 3 6 3 3 3 3 10 10 10 13 23 32 35 42 45 45 35 32 26 29 19 16 13 10 10
6 6 6 6 10 3 0 6 6 10 10 3 3 3 3 6 0 0 3 6 6 10 10 6 6 10 6 10 0 10 19 35 39 39 39 35 35 26 19 16 13 6 6
6 6 10 3 6 6 10 6 10 13 13 13 3 6 10 6 3 6 3 3 0 3 10 13 6 10 10 10 6 3 16 29 26 32 29 29 32 19 16 13 16 10 6
10 10 6 6 6 10 10 10 10 13 13 13 13 6 3 3 16 13 13 10 3 6 3 3 10 10 6 10 6 0 10 16 13 23 29 32 29 23 16 13 16 13 6
10 6 10 3 6 3 10 13 16 13 13 13 16 16 16 10 3 10 10 10 6 6 10 3 6 3 3 6 6 3 3 6 13 16 19 29 29 26 23 19 19 10 3
13 10 10 6 10 10 10 10 13 16 16 19 19 16 16 16 19 13 13 10 10 10 10 3 3 6 6 6 3 0 0 0 3 3 10 10 3 13 23 16 10 10 6
19 16 10 10 10 10 10 13 13 16 16 19 16 16 16 16 16 13 10 13 10 6 3 3 3 6 10 10 6 0 3 3 3 3 0 0 3 6 10 13 10 10 13
19 16 10 10 10 6 10 10 10 10 13 16 16 16 16 16 16 13 16 16 16 10 13 10 6 6 6 6 3 0 6 0 0 0 0 0 0 0 0 0 0 6 3
13 10 10 16 13 6 13 10 10 10 10 10 16 16 13 13 16 19 16 10 10 16 13 13 13 10 6 6 3 3 3 0 0 0 0 0 0 0 0 0 0 0 0
13 13 13 13 16 10 10 10 13 13 16 16 16 16 16 16 16 13 13 10 10 13 13 13 13 10 10 10 10 6 6 0 0 3 0 0 0 0 0 0 0 0 0
16 19 16 16 13 10 10 10 10 13 13 16 16 19 19 16 16 16 13 16 13 13 13 10 13 13 10 10 6 10 6 6 3 0 0 0 0 0 0 0 0 0 0
16 13 16 16 16 13 6 13 16 19 26 26 23 23 26 19 16 16 16 19 16 13 13 10 10 10 6 6 6 6 3 0 0 0 0 0 0 0 0 0 0 0 0
16 13 16 19 16 19 13 19 23 23 26 29 26 26 26 23 19 16 13 16 16 10 10 10 10 10 10 6 3 3 0 0 0 0 0 0 0 0 0 0 0 0 0
16 19 16 13 13 16 19 23 26 29 29 26 29 26 23 23 16 19 19 19 19 13 10 10 10 10 10 3 3 3 3 3 0 0 0 0 0 0 0 0 0 0 0
16 13 13 13 13 13 16 16 26 26 26 26 23 19 19 16 16 16 16 19 19 16 16 13 13 10 6 3 3 3 3 3 3 0 0 0 0 0 0 0 0 0 0
23 16 16 13 13 13 16 6 16 23 23 23 23 19 19 16 16 16 10 13 16 13 16 16 16 16 16 13 10 3 3 3 6 3 0 0 0 0 0 0 0 0 0
19 19 19 19 19 16 6 6 6 10 13 19 19 19 19 23 16 19 16 6 0 0 6 16 16 16 16 16 13 10 6 6 6 6 0 3 0 0 0 0 0 0 0
19 19 16 13 16 10 6 3 3 10 10 10 16 19 23 26 23 23 19 16 16 16 16 13 16 16 16 16 16 13 13 13 10 6 3 3 6 6 3 0 0 0 0
19 19 16 16 16 13 10 3 3 10 10 13 13 16 19 19 13 3 10 16 16 16 10 6 6 10 6 3 6 10 13 13 16 13 3 3 6 6 6 6 0 0 0
19 19 19 19 16 19 10 6 3 10 13 13 16 16 10 10 6 0 6 13 13 16 13 10 6 6 6 6 3 3 16 16 16 13 13 0 3 3 3 6 0 0 0

GEFSMA_con_cape1000_282.txt.gz
Probability
32 26 45 48 26 26 32 45 35 45 48 35 32 26 29 39 39 39 52 45 39 42 45 45 42 39 42 42 39 32 39 32 29 39 45 42 42 42 32 29 26 29 23
35 29 42 55 42 39 35 48 35 42 42 39 39 39 39 32 42 39 39 42 45 45 39 42 42 42 39 35 39 39 32 32 42 42 48 48 48 35 42 26 26 26 26
39 39 26 32 35 35 39 39 35 35 39 32 32 29 42 35 32 39 35 35 42 42 39 42 42 61 48 39 45 42 39 39 42 45 45 45 48 45 39 42 29 29 23
29 42 35 32 35 32 35 39 32 32 39 39 39 32 35 45 35 32 29 39 35 32 39 45 45 45 45 42 42 45 45 42 48 48 48 48 48 42 35 32 32 16 19
35 39 48 39 32 32 39 29 32 35 32 35 23 35 29 32 35 29 32 29 29 45 48 48 42 42 39 39 39 39 45 42 39 45 48 45 45 48 39 39 29 23 16
39 45 45 52 29 35 35 42 45 52 45 45 16 23 23 29 29 26 26 26 29 29 35 42 48 45 32 35 32 35 39 39 39 39 48 48 42 42 39 35 32 26 19
48 58 45 52 48 39 52 42 45 35 42 42 29 19 26 23 26 35 29 29 26 32 45 48 48 52 42 35 29 29 26 26 29 32 35 45 39 42 32 32 32 26 16
48 42 55 55 48 61 65 61 65 52 32 29 35 19 23 32 29 16 23 32 32 42 45 35 48 52 45 35 32 26 23 26 23 26 32 35 35 39 35 29 23 16 13
45 48 65 61 58 45 55 61 65 55 48 45 42 35 23 19 29 19 29 32 45 55 52 42 35 42 35 39 29 19 26 23 23 19 19 19 19 32 32 29 19 16 10
55 52 58 61 68 52 65 58 48 55 55 52 52 52 55 39 45 23 26 26 32 42 42 26 29 35 35 32 29 19 16 16 13 16 19 19 16 23 23 23 23 19 10
55 58 58 58 71 61 65 68 71 71 55 52 48 45 48 48 39 32 26 23 29 32 26 29 35 39 39 32 35 13 6 10 10 13 16 16 19 16 16 19 19 19 16
61 55 58 61 68 65 71 71 71 61 61 68 65 48 45 39 35 35 32 35 26 26 26 29 29 32 29 29 19 6 3 3 0 10 10 19 16 13 10 10 16 16 16
65 58 52 65 65 65 65 65 61 58 55 58 61 58 45 48 42 35 35 29 19 23 26 29 23 29 23 29 23 10 10 3 0 0 0 10 10 6 6 6 6 10 10
45 58 65 71 65 65 55 52 48 48 55 58 52 55 55 35 35 39 35 26 26 19 23 19 16 23 23 23 13 6 13 3 0 0 0 0 0 0 0 0 0 0 0
58 61 58 61 61 58 58 55 48 48 55 52 48 45 48 42 39 32 35 26 26 23 26 19 16 16 29 26 13 23 23 10 6 0 0 0 0 0 0 0 0 0 0
61 61 58 61 58 55 52 52 48 45 48 52 52 48 52 42 42 35 35 35 29 26 19 16 32 26 29 19 13 26 26 10 6 0 0 0 0 0 0 0 0 0 0
65 61 61 58 58 52 52 52 45 48 45 45 45 42 42 55 39 39 35 35 29 29 35 29 29 29 29 26 26 23 23 23 19 3 0 0 0 0 0 0 0 0 0
61 58 55 55 48 48 48 48 48 45 42 48 48 39 42 35 42 39 35 35 35 35 35 32 26 23 23 32 29 29 19 16 19 3 0 0 0 0 0 0 0 0 0
58 58 52 52 48 48 48 48 48 48 45 45 39 35 39 42 42 42 42 35 35 26 35 32 29 29 26 26 26 26 23 23 19 13 3 0 0 0 0 0 0 0 0
55 58 48 52 45 45 48 48 45 48 45 39 39 35 35 32 35 39 39 39 39 39 39 32 32 23 23 23 23 19 19 23 16 16 13 6 3 0 0 0 0 0 0
55 48 45 48 45 42 42 45 45 42 45 42 35 35 35 29 29 29 29 35 39 35 35 32 29 23 19 23 19 19 23 26 19 16 19 19 16 13 10 3 0 0 0
52 45 45 45 45 35 26 23 35 39 42 42 39 39 39 32 26 19 16 16 26 29 32 26 26 26 29 23 23 19 23 23 19 19 19 16 16 16 19 16 6 3 0
48 42 45 45 45 35 13 10 10 32 42 39 39 39 32 26 26 29 23 6 10 3 6 29 23 23 26 26 29 23 29 23 19 16 16 16 19 19 16 13 6 3 0
48 45 42 42 39 35 13 6 6 26 42 39 39 39 39 32 29 29 29 29 29 26 26 23 23 23 23 26 26 29 26 26 26 16 16 16 16 16 10 13 6 3 0
52 52 42 42 32 29 13 3 3 35 35 39 39 35 35 32 29 19 26 29 29 29 19 10 13 13 13 10 16 23 26 23 16 16 16 19 19 19 13 10 6 3 0
52 52 35 39 35 35 13 3 0 23 32 32 35 35 23 26 26 6 26 32 29 29 29 26 16 16 16 19 0 23 26 19 16 13 13 16 10 13 10 10 10 6 6

GEFSMA_con_cape1000_288.txt.gz
Probability
68 55 58 65 65 61 58 58 61 65 58 52 48 45 55 48 48 35 35 58 58 58 61 52 52 52 52 52 48 45 45 39 35 42 45 52 48 45 52 45 39 42 42
68 68 68 74 61 65 65 65 58 58 52 55 58 52 52 52 42 39 35 52 58 61 61 58 55 55 55 52 45 48 52 48 42 39 45 52 58 45 52 45 45 42 32
68 68 68 65 61 65 58 61 58 61 58 52 52 42 42 45 39 45 52 45 45 65 61 58 61 58 52 45 45 45 48 42 45 42 45 48 52 55 45 39 32 35 26
58 65 68 61 71 74 68 71 68 68 65 65 58 42 42 52 48 48 45 48 45 35 45 65 58 55 52 45 45 45 45 42 42 42 42 42 48 45 45 42 39 29 29
48 71 68 71 68 65 68 65 68 61 68 65 52 52 52 55 58 45 45 45 52 58 45 52 65 52 48 48 48 42 39 42 45 42 42 45 45 52 42 45 42 39 29
48 55 65 61 68 65 74 74 68 68 68 68 35 29 48 42 52 45 45 39 52 52 48 42 52 45 48 48 45 39 35 39 39 42 45 45 48 48 45 42 35 23 29
48 58 61 68 71 71 74 61 71 61 68 71 65 58 52 48 52 55 55 55 52 45 48 42 42 42 42 39 42 48 42 39 42 42 42 42 48 45 42 42 32 19 23
52 48 58 61 68 77 68 71 68 71 71 74 71 61 58 61 58 26 52 52 52 55 55 42 52 55 42 35 26 32 42 42 35 35 35 39 39 42 42 39 35 26 26
58 65 65 74 74 77 71 68 74 65 68 68 65 65 58 48 48 52 48 42 58 55 45 42 48 48 45 39 26 29 35 35 32 32 29 29 29 29 29 32 26 29 23
68 68 68 71 71 84 81 77 74 77 71 58 65 68 65 55 48 52 58 48 45 45 42 23 32 39 39 39 29 16 19 19 29 23 26 29 29 26 19 26 19 19 23
68 65 65 65 68 74 77 74 77 74 74 71 68 65 58 61 58 52 35 45 45 42 42 45 45 35 32 35 26 16 16 16 16 16 19 19 26 26 23 19 23 13 13
74 68 68 74 74 74 71 71 71 71 74 74 77 74 65 58 55 52 39 45 48 42 42 39 42 39 35 32 29 16 16 13 13 13 13 13 16 19 19 16 16 10 10
74 71 68 71 71 68 68 74 71 71 71 71 71 71 71 65 61 55 42 39 32 35 39 39 39 42 29 26 29 16 10 10 3 0 0 13 16 16 23 23 13 10 6
68 68 68 65 65 65 61 65 65 68 65 58 55 61 61 61 61 55 48 45 39 42 42 45 32 32 35 26 16 10 16 6 3 0 0 0 0 6 6 6 6 6 3
68 68 65 65 65 65 61 61 65 61 58 55 52 55 61 58 61 48 45 45 39 32 29 39 32 32 32 32 13 19 16 13 10 6 0 0 3 3 0 0 0 0 0
68 68 61 61 61 58 55 58 48 45 48 52 52 55 55 58 58 45 45 48 45 42 35 35 39 32 35 19 10 16 19 13 10 3 3 0 0 0 0 0 0 0 0
68 65 61 61 61 52 48 58 45 45 42 42 42 35 42 52 48 52 48 45 42 42 32 29 32 32 39 35 19 23 19 19 13 6 3 0 0 0 0 0 0 0 0
61 61 65 58 58 58 58 55 48 42 39 42 39 35 35 32 35 42 42 42 42 39 39 35 29 32 32 29 26 23 19 16 16 13 3 0 0 0 0 0 0 0 0
61 65 61 65 61 58 55 52 48 45 48 42 42 39 39 32 39 42 42 42 39 29 48 35 23 29 32 26 23 16 16 19 16 16 13 0 0 0 0 0 0 0 0
65 58 65 65 55 52 52 45 45 42 42 42 42 42 39 35 39 42 35 39 39 39 42 35 32 26 26 26 23 16 19 16 16 16 16 10 6 3 0 0 0 0 0
58 61 61 52 48 48 45 45 42 42 42 42 39 35 32 29 29 29 26 32 35 39 35 35 29 35 26 26 19 19 16 19 19 16 16 16 13 6 6 3 0 0 0
61 65 58 52 52 42 29 26 35 39 42 42 35 35 32 29 29 23 26 26 26 29 29 39 32 29 29 29 26 16 19 19 16 19 19 16 16 13 13 10 3 0 0
58 61 61 55 52 39 19 16 16 32 32 35 35 35 32 32 29 26 26 19 16 13 13 23 29 29 26 26 26 23 16 16 16 16 16 16 16 16 13 13 10 0 0
61 65 58 55 52 35 19 6 10 26 35 35 35 32 42 35 29 32 29 32 32 26 26 23 23 23 23 23 23 19 19 16 16 16 16 16 16 10 10 13 13 3 0
61 61 61 55 55 45 16 10 3 32 32 32 32 29 35 32 23 16 29 32 32 32 19 16 13 16 13 10 10 10 19 16 16 16 10 10 10 10 10 10 10 3 3
58 55 58 52 48 45 16 10 3 29 29 32 35 29 23 23 19 13 19 32 26 29 26 19 16 16 16 16 6 10 19 16 13 16 10 10 10 10 10 10 10 3 3

GEFSMA_con_cape1000_294.txt.gz
Probability
0 0 3 3 3 3 6 10 6 13 16 10 13 13 6 6 10 10 13 52 65 65 61 58 55 55 55 52 42 39 39 39 42 45 42 39 45 45 39 42 42 42 42
0 3 10 10 6 10 6 3 10 10 6 16 16 13 10 6 6 10 10 19 48 55 55 65 61 52 52 48 45 48 35 42 48 48 42 42 45 52 48 52 42 45 39
0 0 10 13 10 10 6 10 3 10 19 16 13 13 13 6 6 10 10 10 13 48 65 65 65 58 55 55 45 42 42 45 52 45 45 45 48 45 48 52 48 48 29
0 6 13 13 6 10 10 10 10 10 16 13 10 10 6 6 6 3 3 6 13 16 39 61 65 61 61 58 52 48 42 48 52 45 42 42 42 42 45 45 45 42 42
10 13 16 13 13 13 16 19 10 10 16 13 6 3 3 0 3 3 3 6 10 13 13 32 58 58 58 58 55 52 45 45 45 45 45 45 45 45 42 42 35 42 39
10 10 16 16 16 23 16 16 13 10 6 6 3 0 0 0 3 0 0 3 3 3 3 16 26 42 52 52 52 45 42 39 42 39 42 42 45 45 45 42 35 39 39
16 16 26 23 19 19 16 13 13 10 6 6 0 0 0 0 0 0 0 3 6 3 3 6 3 10 13 42 45 42 48 45 42 45 42 42 42 42 35 35 42 39 29
16 23 19 23 26 16 13 10 10 13 6 6 3 0 0 0 0 3 0 0 0 0 10 13 3 3 6 6 16 29 35 39 32 35 39 42 45 42 35 42 39 29 26
19 19 19 16 19 23 16 10 13 13 10 10 6 6 3 0 0 0 0 0 3 6 6 6 10 6 3 3 6 10 29 29 29 32 39 35 35 35 35 39 42 42 29
19 16 16 16 16 19 16 16 16 16 13 16 13 10 10 3 3 3 3 0 6 10 10 6 10 6 3 3 6 10 16 26 26 26 26 26 29 29 32 35 35 35 26
23 19 19 16 19 19 16 19 19 13 16 13 13 16 16 13 6 13 10 6 13 10 10 6 6 6 6 6 10 10 16 19 19 13 23 23 23 26 26 23 32 29 29
26 26 32 23 23 19 13 16 16 13 16 23 13 13 16 16 19 13 16 13 13 13 10 10 3 3 6 6 10 10 10 10 10 13 16 19 19 23 26 26 23 26 19
32 23 32 26 26 26 23 23 19 19 23 23 26 16 16 19 19 19 16 10 6 10 6 10 10 10 13 6 10 13 13 10 10 3 0 10 16 19 23 19 19 16 19
26 16 16 35 35 26 26 23 29 26 26 29 29 16 10 13 13 13 13 10 10 6 6 6 10 10 10 10 10 10 6 3 3 0 0 0 3 6 3 3 10 13 16
26 26 29 26 29 32 29 26 26 26 19 19 23 19 19 13 13 13 13 10 10 10 10 10 10 13 13 13 13 6 6 3 3 0 0 0 0 0 0 0 0 3 3
32 26 29 35 29 32 32 29 32 23 19 16 16 23 26 23 13 13 13 13 13 13 13 13 13 10 13 13 10 10 10 6 3 3 0 0 0 0 0 0 0 0 0
32 32 29 32 32 32 26 29 32 35 26 26 26 19 16 13 13 13 13 13 13 13 13 13 13 10 13 10 10 10 10 10 10 6 0 0 0 0 0 0 0 0 0
29 32 35 42 39 29 23 29 32 32 29 29 26 16 16 23 19 16 16 19 19 16 16 16 16 16 16 13 13 13 10 13 13 13 10 3 0 0 0 0 0 0 0
39 32 39 39 35 29 26 26 26 26 26 29 26 26 23 23 23 19 16 19 16 19 16 13 16 16 13 13 10 10 10 13 13 13 13 10 6 0 0 0 0 0 0
39 42 42 35 32 29 26 23 26 26 26 26 23 19 23 23 23 23 26 23 19 19 19 16 16 10 10 10 10 10 10 10 13 13 13 13 10 0 0 0 0 0 0
39 35 35 39 32 29 29 29 29 26 23 23 19 16 16 16 16 23 26 26 23 16 16 13 13 13 10 10 10 10 13 10 6 13 13 13 10 3 0 0 0 0 0
39 32 32 35 39 35 29 19 23 26 19 16 13 16 16 16 16 16 16 16 16 16 19 13 13 13 10 10 6 10 10 6 6 10 10 10 6 6 6 3 0 0 0
32 32 32 29 26 26 23 16 13 16 13 13 10 16 19 19 13 13 16 10 6 6 6 13 13 13 10 6 10 6 6 6 6 10 6 6 6 6 6 6 6 0 0
35 29 26 23 23 19 23 13 6 6 10 6 6 6 6 16 16 13 13 16 16 13 13 6 10 10 10 10 6 6 3 6 3 3 6 6 6 3 3 6 3 3 0
39 32 23 19 23 16 13 10 3 3 6 6 3 3 6 10 13 3 6 13 13 13 16 10 6 6 6 6 3 3 3 0 0 3 0 0 3 6 6 3 6 3 3
39 32 23 19 23 16 16 10 6 6 6 3 3 3 3 3 6 3 6 10 10 10 10 10 10 3 3 3 0 0 3 0 0 6 0 3 3 3 3 3 3 3 3

GEFSMA_con_cape1000_300.txt.gz
Probability
0 0 0 0 0 0 3 3 3 3 10 10 13 10 16 10 10 10 16 32 65 65 55 55 52 52 48 45 42 32 35 39 45 42 42 39 39 39 35 29 35 39 45
0 0 0 0 3 3 3 3 3 6 10 13 13 13 13 19 13 10 13 13 35 61 58 48 45 52 55 45 42 39 39 42 45 35 42 42 45 42 35 35 35 39 42
0 0 3 3 3 3 6 6 3 10 10 13 13 16 16 16 10 6 6 6 10 29 45 55 55 55 58 48 42 39 42 45 42 35 35 35 39 39 32 29 29 39 39
0 3 3 3 3 0 3 3 6 6 10 6 6 6 6 13 6 3 3 6 10 10 26 55 48 45 52 45 45 45 45 42 39 39 35 32 39 42 35 29 29 29 32
3 3 3 6 3 3 6 6 10 6 6 6 6 3 0 3 0 0 6 6 10 6 6 13 42 48 42 48 42 48 52 48 39 39 39 32 35 42 39 32 35 29 29
3 3 6 10 10 10 10 10 10 10 10 10 3 0 0 0 0 3 3 3 3 6 10 10 13 29 39 48 48 35 39 45 45 42 42 35 32 35 35 35 26 23 35
10 3 10 3 13 13 13 13 10 10 6 6 0 3 0 0 0 3 3 6 6 6 10 13 13 13 19 29 39 42 39 42 35 42 39 35 39 35 35 35 29 29 32
16 13 10 10 13 13 10 10 10 10 6 6 6 6 6 6 6 3 3 6 3 6 10 10 13 13 10 10 13 19 42 35 35 35 39 39 39 39 35 29 35 29 23
13 13 10 10 13 13 13 13 13 13 13 6 6 6 6 13 10 10 10 6 6 3 6 6 13 13 6 6 10 6 13 26 26 26 29 19 26 26 29 35 35 35 29
10 13 13 13 10 10 10 10 13 13 10 10 6 6 6 6 13 13 13 13 13 13 10 6 10 10 10 10 6 6 10 16 19 26 23 23 19 23 29 29 29 29 26
6 10 10 10 10 10 10 6 10 13 10 10 10 10 13 6 6 13 13 13 13 16 13 13 16 10 13 10 10 6 6 6 13 19 23 23 19 26 23 26 29 26 26
3 3 10 10 10 10 10 6 10 13 10 6 6 10 16 16 16 13 13 13 13 13 13 13 13 16 13 13 13 10 6 3 3 3 10 16 19 26 26 16 23 23 26
10 10 10 10 13 13 13 13 13 13 19 16 16 16 16 16 16 16 16 16 13 13 13 13 13 13 13 13 13 10 10 3 3 0 0 3 6 10 13 16 19 19 19
10 10 13 13 16 13 16 19 19 19 19 19 19 19 16 16 13 16 13 13 13 13 10 13 13 13 13 13 13 10 13 6 3 0 0 0 0 3 6 6 6 6 13
10 10 13 16 13 19 19 19 19 19 19 19 19 16 19 19 16 16 13 13 16 13 16 13 13 13 13 13 13 13 13 10 3 3 0 0 0 0 3 3 3 3 3
10 10 13 19 19 23 19 23 16 19 16 16 13 13 16 16 16 13 13 13 13 13 16 16 16 16 13 13 13 13 13 6 6 3 3 3 0 0 0 0 0 3 3
10 10 16 19 16 23 26 26 16 16 13 16 13 16 16 19 16 13 13 13 13 13 16 16 13 16 16 16 13 13 13 10 10 3 3 3 0 0 0 0 0 0 0
13 10 10 13 13 23 23 23 16 19 16 16 19 26 19 19 13 13 16 16 16 16 16 16 16 16 19 19 13 13 10 6 10 3 3 0 0 0 0 0 0 0 0
16 13 19 19 23 23 23 19 16 19 19 19 26 26 23 19 13 16 19 16 16 13 16 16 16 19 19 10 13 10 3 3 3 3 0 0 0 0 0 0 0 0 0
10 19 26 26 26 23 26 19 13 19 19 23 23 23 19 19 19 16 16 19 16 16 16 13 13 19 19 16 10 10 6 10 6 6 3 0 0 0 0 0 0 0 0
16 23 23 23 23 32 26 19 19 16 16 19 19 19 19 19 13 13 16 19 19 16 19 19 19 16 19 13 13 13 13 6 6 3 6 6 6 10 10 10 0 0 0
16 13 13 19 16 19 16 10 16 16 16 16 19 16 16 13 10 3 3 3 3 16 19 19 19 19 19 13 13 13 10 10 10 10 6 10 6 10 10 10 6 0 0
23 19 13 13 16 16 3 3 3 13 16 16 16 16 16 13 6 10 3 3 3 0 6 16 19 19 16 16 13 10 10 10 10 10 3 10 10 10 10 10 0 0 0
23 23 19 13 16 13 3 0 0 0 16 16 16 16 16 19 10 10 10 10 16 10 13 10 13 16 13 10 10 10 10 10 6 6 3 6 10 10 6 6 0 0 0
23 19 16 19 16 13 10 3 0 6 10 10 10 10 10 6 6 3 10 10 10 13 3 3 6 3 3 0 3 10 6 6 10 6 3 6 10 3 3 3 0 0 0
26 16 16 16 16 16 6 6 3 6 10 10 10 10 3 3 3 3 3 6 10 10 6 10 3 3 3 3 0 3 10 6 10 6 6 6 3 3 3 3 0 0 0

GEFSMA_con_cape1000_306.txt.gz
Probability
32 29 42 39 35 35 35 35 39 32 39 29 29 35 35 39 35 35 52 58 48 58 52 48 39 39 45 48 39 39 29 32 35 35 35 29 35 32 32 19 32 32 32
32 32 42 45 42 39 42 42 32 32 29 29 35 32 45 39 45 48 45 48 52 55 48 48 52 45 48 42 48 42 42 35 35 35 39 39 42 39 35 29 26 32 32
39 39 29 35 42 35 35 42 35 32 39 32 32 29 32 45 42 42 39 39 32 35 45 48 48 48 45 45 45 48 45 39 35 35 35 35 35 35 35 29 35 39 32
39 39 35 35 35 32 32 42 32 29 26 29 35 35 32 42 39 39 39 35 35 35 42 45 39 48 45 45 45 42 48 45 39 35 39 39 39 35 39 39 32 32 32
48 52 42 39 35 35 29 32 32 29 35 35 29 39 35 35 45 32 29 35 39 45 39 48 48 45 45 42 42 45 45 42 39 39 35 35 35 35 35 29 32 26 19
48 52 45 45 39 39 45 55 48 55 45 39 23 26 29 29 42 39 35 26 35 42 39 39 52 48 42 39 39 35 32 39 42 39 32 32 32 39 39 32 26 23 23
48 48 45 48 48 45 48 48 52 48 48 39 26 29 32 26 32 32 29 19 19 23 23 35 42 42 45 45 39 42 35 32 39 42 39 32 26 35 35 32 29 26 23
45 39 52 45 45 55 55 55 55 48 35 48 35 29 29 42 32 16 39 35 26 23 23 23 32 52 48 45 42 39 39 35 35 39 45 42 35 29 35 35 29 26 16
45 45 52 52 48 39 39 52 55 48 45 48 45 35 26 19 35 32 35 35 39 48 42 32 32 45 52 52 48 23 32 35 29 32 39 39 32 35 32 29 29 26 23
45 42 42 52 48 39 48 42 35 45 52 39 45 45 39 29 26 32 35 35 35 45 45 35 26 35 42 48 48 29 19 23 16 23 29 35 29 32 29 23 19 23 19
42 35 39 42 48 48 48 48 52 52 52 42 42 39 42 42 29 35 35 35 32 32 42 42 42 32 42 45 45 26 10 6 10 13 19 26 29 32 26 29 26 23 23
42 42 39 45 39 45 52 55 55 55 55 52 52 39 39 39 26 26 32 39 39 32 35 39 35 35 32 32 29 19 13 10 6 3 10 13 23 32 29 26 23 26 29
45 39 39 55 42 52 52 55 55 45 45 48 48 45 35 39 35 39 35 29 39 39 35 32 32 32 29 32 39 19 16 10 10 6 3 6 10 10 16 19 26 29 32
39 39 48 48 45 45 42 48 42 45 45 48 45 48 45 32 39 32 32 35 39 32 35 32 29 29 35 35 29 13 26 13 6 6 0 0 3 3 6 6 6 6 10
45 45 52 45 45 45 48 48 45 45 45 42 35 42 42 42 39 42 35 29 42 42 29 32 26 29 35 39 26 39 32 19 13 6 0 0 0 0 0 0 3 3 3
48 52 52 52 48 55 52 48 45 45 42 42 45 45 45 35 35 35 35 39 39 42 32 29 32 26 29 26 26 35 32 23 10 3 3 3 3 0 0 0 0 0 0
55 52 52 48 52 48 39 48 39 39 39 35 35 35 39 39 39 35 35 39 35 39 39 29 26 35 35 32 32 29 26 26 23 3 3 3 3 3 0 0 0 0 0
55 52 52 45 42 42 42 42 42 35 42 35 35 35 39 39 39 42 39 39 39 42 39 39 26 32 32 35 32 35 23 19 26 13 0 0 0 0 0 0 0 0 0
48 48 48 42 39 39 39 42 39 39 32 39 39 39 39 39 42 42 48 35 39 32 42 42 29 32 23 29 35 29 23 26 23 19 0 0 0 0 0 0 0 0 0
52 48 48 45 42 42 39 39 39 45 39 39 39 42 42 42 42 42 42 42 39 35 42 39 35 26 26 29 32 26 23 29 23 23 16 10 6 6 0 0 0 0 0
52 52 48 48 42 39 39 35 39 35 32 35 42 45 42 39 29 35 35 39 39 42 39 32 29 19 19 35 26 19 23 26 23 19 19 16 16 13 10 3 3 0 0
55 52 52 48 48 35 13 13 32 39 32 35 42 39 42 39 19 10 6 6 19 32 23 26 26 26 32 35 39 35 23 23 16 19 16 19 19 16 13 10 0 0 0
52 52 52 52 52 39 19 3 6 29 32 35 39 39 32 29 26 26 16 3 3 0 3 32 26 26 32 35 35 35 32 29 23 23 16 16 16 19 6 3 0 0 0
52 52 52 48 52 32 16 3 3 16 29 29 32 32 29 29 26 29 29 23 29 26 19 23 23 29 29 35 35 32 29 23 23 23 19 16 16 13 6 3 0 0 0
48 52 48 48 45 39 16 3 0 29 23 26 26 26 29 29 23 16 26 29 29 29 19 3 6 6 6 6 13 16 19 16 16 16 16 13 13 13 6 6 0 0 0
48 45 48 45 45 45 26 3 3 19 23 23 26 26 23 23 16 10 26 26 26 26 26 19 19 6 13 10 3 16 16 13 10 13 16 13 13 13 3 0 3 0 0